User: anonymous   Login
Location: Unspecified
(0.0000°N, 0.0000°E)
Time: 05:33:27
(UTC+02:00)
Language:

Palapa 6 Rocket - Orbit

View from above orbital plane
View from above orbital plane
View from above satellite
View from above satellite

Ground track
Ground track

The orbit data is extracted from the following two-line orbital elements,

1 20571U 90034B   17173.30773680 +.00000466 +00000-0 +21175-4 0  9990
2 20571 022.7434 151.3707 0508778 112.5840 252.9244 14.11945874393253
Epoch (UTC): 22 June 2017 07:23:08
Eccentricity: 0.0508778
inclination: 22.7434°
perigee height: 485 km
apogee height: 1220 km
right ascension of ascending node: 151.3707°
argument of perigee: 112.5840°
revolutions per day: 14.11945874
mean anomaly at epoch: 252.9244°
orbit number at epoch: 39325

The dashed part of the orbit path shows where the satellite is in the earth's shadow,  

DLR